Home > Weather > Norman Wells > Past weeks

Flag for Canada Past Weather in Norman Wells, Northwest Territories, Canada — Yesterday and Last 2 Weeks

Now
48 °F

Light rain. Mostly cloudy.


Feels Like: 48 °F
Forecast: 49 / 63 °F
Wind: 2 mph from Northeast

Location: Norman Wells

Current Time: Jul 26, 2016 at 8:10:07 AM

Latest Report: Jul 26, 2016 at 7:00 AM


Visibility: 10 mi

Pressure: 29.94 "Hg

Humidity: 100%

Dew Point: 48 °F

Location of Norman WellsLocation

Past Weather in Norman Wells — Graph

°F

Norman Wells Temperature Yesterday

Maximum temperature yesterday: 57 °F (at 1:00 PM)
Minimum temperature yesterday: 50 °F (at 5:00 AM)
Average temperature yesterday: 53 °F

High & Low Weather Summary for the Past Weeks

 TemperatureHumidityPressure
High90 °F (Jul 15, 5:00 PM)100% (Jul 17, 9:00 PM)30.18 "Hg (Jul 17, 9:00 PM)
Low36 °F (Jul 23, 5:00 AM)26% (Jul 15, 5:00 PM)29.70 "Hg (Jul 22, 8:00 PM)
Average60 °F67%29.91 "Hg
* Reported Jul 11 6:00 AM — Jul 26 6:00 AM, Norman Wells, Weather by CustomWeather, © 2016

Note: Actual official high and low records may vary slightly from our data, if they occured in-between our weather recording intervals... More about our weather records

Advertising

Norman Wells Weather History for the Previous 24 Hours

Scroll right to see more
 ConditionsComfort  
Time TempWeatherWind HumidityBarometerVisibility
6:00 AM
Tue, Jul 26
48 °FMostly cloudy.3 mph100%29.93 "Hg15 mi
5:00 AM48 °FLight rain. Overcast.5 mph100%29.93 "Hg10 mi
4:00 AM48 °FLight rain. Overcast.3 mph100%29.93 "Hg10 mi
3:00 AM50 °FLight rain. Fog.10 mph94%29.93 "Hg5 mi
2:00 AM50 °FLight rain. Fog.8 mph100%29.92 "Hg4 mi
1:00 AM52 °FLight rain. Mostly cloudy.6 mph94%29.92 "Hg15 mi
12:00 AM52 °FScattered showers. Cloudy.No wind100%29.91 "Hg15 mi
11:00 PM
Mon, Jul 25
54 °FCloudy.3 mph88%29.90 "Hg20 mi
10:00 PM54 °FMore clouds than sun.6 mph88%29.90 "Hg15 mi
9:00 PM54 °FSprinkles. Low clouds.3 mph88%29.89 "Hg10 mi
8:00 PM54 °FSprinkles. Mostly cloudy.3 mph94%29.88 "Hg15 mi
7:00 PM54 °FSprinkles. Overcast.No wind88%29.88 "Hg10 mi
6:00 PM54 °FSprinkles. More clouds than sun.No wind88%29.87 "Hg10 mi
5:00 PM54 °FSprinkles. More clouds than sun.2 mph94%29.87 "Hg10 mi
4:00 PM55 °FSprinkles. More clouds than sun.8 mph77%29.86 "Hg10 mi
3:00 PM57 °FSprinkles. More clouds than sun.10 mph67%29.88 "Hg15 mi
2:00 PM57 °FBroken clouds.13 mph63%29.87 "Hg30 mi
1:00 PM57 °FPartly sunny.9 mph63%29.88 "Hg30 mi
12:00 PM54 °FBroken clouds.6 mph72%29.90 "Hg30 mi
11:00 AM52 °FBroken clouds.7 mph77%29.90 "Hg30 mi
10:00 AM50 °FLight rain. Mostly cloudy.5 mph82%29.90 "Hg30 mi
9:00 AM50 °FLight rain. Mostly cloudy.7 mph82%29.90 "Hg30 mi
8:00 AM50 °FLight rain. Mostly cloudy.2 mph82%29.88 "Hg25 mi
Weather by CustomWeather, © 2016

See weather overviewHow to use our weather pages